IRIDIUM 131 (43079 NORAD) Tracking and Keplerian Element Data

This shows tracking and keplerian element data for the satellite.

Feedback or suggestion? Click here.




ElementValue
Catalog43079
NameIRIDIUM 131
Epoch Orbit19584
Epoch Day262.11638377
Epoch Year2021
RAAN325.9361
Inclination86.3992
Eccentricity0.0002057
Argument of Perigee90.2809
Mean Anonmoly269.8623
Mean Motion14.34217361
Decay Rate9.1E-07
L11 43079U 17083K 21262.11638377 .00000091 00000-0 25441-4 0 9991
L22 43079 86.3992 325.9361 0002057 90.2809 269.8623 14.34217361195848

Live tracking and technical data element details for IRIDIUM 131 (NORAD 43079). IRIDIUM 131 can be tracked NOW for your location showing map with azimuth and elevation plus other details from your city location.

Track the satellite on the map from your city or location and see movement details for azimuth, elevation, latitude, longitude, range, height, and movement on the map or in text.







IsCatalogInMostPopularTable: catalog: 43079, numindb: 640
Update: records affected: 1



GetName: 43079 IRIDIUM 131

Hit Count: updated at: Fri, 24 Sep 2021 18:17:40 GMT